Time,TemperatureF,DewpointF,PressureIn,WindDirection,WindDirectionDegrees,WindSpeedMPH,WindSpeedGustMPH,Humidity,HourlyPrecipIn,Conditions,Clouds,dailyrainin,SoftwareType,DateUTC
2013-08-19 00:01:00,67.5,57.3,30.10,North,1,0.0,0.0,70,0.00,CLR,,0.00,WeatherDisplay:10.37,2013-08-19 05:01:00,
2013-08-19 00:06:00,67.3,57.2,30.09,North,1,0.0,0.0,70,0.00,CLR,,0.00,WeatherDisplay:10.37,2013-08-19 05:06:00,
2013-08-19 00:11:00,67.1,57.0,30.09,North,1,0.0,0.0,70,0.00,CLR,,0.00,WeatherDisplay:10.37,2013-08-19 05:11:00,
2013-08-19 00:16:00,66.9,56.8,30.10,North,1,0.0,0.0,70,0.00,CLR,,0.00,WeatherDisplay:10.37,2013-08-19 05:16:00,
2013-08-19 00:21:00,66.9,56.8,30.10,North,1,0.0,0.0,70,0.00,CLR,,0.00,WeatherDisplay:10.37,2013-08-19 05:21:00,
2013-08-19 00:26:00,66.9,56.8,30.10,North,1,0.0,0.0,70,0.00,CLR,,0.00,WeatherDisplay:10.37,2013-08-19 05:26:00,
2013-08-19 00:31:00,66.7,56.6,30.10,North,1,0.0,0.0,70,0.00,CLR,,0.00,WeatherDisplay:10.37,2013-08-19 05:31:00,
2013-08-19 00:36:00,66.6,56.9,30.09,North,1,0.0,0.0,71,0.00,CLR,,0.00,WeatherDisplay:10.37,2013-08-19 05:36:00,
2013-08-19 00:41:00,66.6,56.9,30.09,North,1,0.0,0.0,71,0.00,CLR,,0.00,WeatherDisplay:10.37,2013-08-19 05:41:00,
2013-08-19 00:46:00,66.6,56.9,30.09,North,1,0.0,0.0,71,0.00,CLR,,0.00,WeatherDisplay:10.37,2013-08-19 05:46:00,
2013-08-19 00:51:00,66.4,56.7,30.09,North,1,0.0,0.0,71,0.00,CLR,,0.00,WeatherDisplay:10.37,2013-08-19 05:51:00,
2013-08-19 00:56:00,66.4,56.7,30.09,North,1,0.0,0.0,71,0.00,CLR,,0.00,WeatherDisplay:10.37,2013-08-19 05:56:00,
2013-08-19 01:01:00,66.4,57.1,30.09,North,1,0.0,0.0,72,0.00,CLR,,0.00,WeatherDisplay:10.37,2013-08-19 06:01:00,
2013-08-19 01:06:00,66.2,56.9,30.09,North,1,0.0,0.0,72,0.00,CLR,,0.00,WeatherDisplay:10.37,2013-08-19 06:06:00,
2013-08-19 01:11:00,66.0,56.7,30.10,North,1,0.0,0.0,72,0.00,CLR,,0.00,WeatherDisplay:10.37,2013-08-19 06:11:00,
2013-08-19 01:16:00,66.0,56.7,30.09,North,1,0.0,0.0,72,0.00,CLR,,0.00,WeatherDisplay:10.37,2013-08-19 06:16:00,
2013-08-19 01:21:00,66.0,56.7,30.09,North,1,0.0,0.0,72,0.00,CLR,,0.00,WeatherDisplay:10.37,2013-08-19 06:21:00,
2013-08-19 01:26:00,65.8,56.6,30.09,North,1,0.0,0.0,72,0.00,CLR,,0.00,WeatherDisplay:10.37,2013-08-19 06:26:00,
2013-08-19 01:31:00,65.7,56.4,30.09,North,1,0.0,0.0,72,0.00,CLR,,0.00,WeatherDisplay:10.37,2013-08-19 06:31:00,
2013-08-19 01:36:00,65.7,56.4,30.09,North,1,0.0,0.0,72,0.00,CLR,,0.00,WeatherDisplay:10.37,2013-08-19 06:36:00,
2013-08-19 01:41:00,65.7,56.4,30.09,North,1,0.0,0.0,72,0.00,CLR,,0.00,WeatherDisplay:10.37,2013-08-19 06:41:00,
2013-08-19 01:46:00,65.5,56.6,30.09,North,1,0.0,0.0,73,0.00,CLR,,0.00,WeatherDisplay:10.37,2013-08-19 06:46:00,
2013-08-19 01:51:00,65.5,56.6,30.09,North,1,0.0,0.0,73,0.00,CLR,,0.00,WeatherDisplay:10.37,2013-08-19 06:51:00,
2013-08-19 01:56:00,65.5,56.6,30.09,North,1,0.0,0.0,73,0.00,CLR,,0.00,WeatherDisplay:10.37,2013-08-19 06:56:00,
2013-08-19 02:01:00,65.5,56.6,30.09,North,1,0.0,0.0,73,0.00,CLR,,0.00,WeatherDisplay:10.37,2013-08-19 07:01:00,
2013-08-19 02:06:00,65.1,56.2,30.08,North,1,0.0,0.0,73,0.00,CLR,,0.00,WeatherDisplay:10.37,2013-08-19 07:06:00,
2013-08-19 02:11:00,65.1,56.6,30.08,North,1,0.0,0.0,74,0.00,CLR,,0.00,WeatherDisplay:10.37,2013-08-19 07:11:00,
2013-08-19 02:16:00,64.9,56.5,30.08,North,1,0.0,0.0,74,0.00,CLR,,0.00,WeatherDisplay:10.37,2013-08-19 07:16:00,
2013-08-19 02:21:00,64.8,56.3,30.08,North,1,0.0,0.0,74,0.00,CLR,,0.00,WeatherDisplay:10.37,2013-08-19 07:21:00,
2013-08-19 02:26:00,64.8,56.3,30.07,North,1,0.0,0.0,74,0.00,CLR,,0.00,WeatherDisplay:10.37,2013-08-19 07:26:00,
2013-08-19 02:31:00,64.6,56.1,30.07,North,1,0.0,0.0,74,0.00,CLR,,0.00,WeatherDisplay:10.37,2013-08-19 07:31:00,
2013-08-19 02:36:00,64.6,56.5,30.07,North,1,0.0,0.0,75,0.00,CLR,,0.00,WeatherDisplay:10.37,2013-08-19 07:36:00,
2013-08-19 02:41:00,64.2,56.1,30.06,North,1,0.0,0.0,75,0.00,CLR,,0.00,WeatherDisplay:10.37,2013-08-19 07:41:00,
2013-08-19 02:46:00,64.2,56.1,30.07,North,1,0.0,0.0,75,0.00,CLR,,0.00,WeatherDisplay:10.37,2013-08-19 07:46:00,
2013-08-19 02:51:00,64.0,56.3,30.06,North,1,0.0,0.0,76,0.00,CLR,,0.00,WeatherDisplay:10.37,2013-08-19 07:51:00,
2013-08-19 02:56:00,63.9,56.1,30.06,North,1,0.0,0.0,76,0.00,CLR,,0.00,WeatherDisplay:10.37,2013-08-19 07:56:00,
2013-08-19 03:01:00,63.9,56.1,30.06,North,1,0.0,0.0,76,0.00,CLR,,0.00,WeatherDisplay:10.37,2013-08-19 08:01:00,
2013-08-19 03:06:00,63.7,56.0,30.06,North,1,0.0,0.0,76,0.00,CLR,,0.00,WeatherDisplay:10.37,2013-08-19 08:06:00,
2013-08-19 03:11:00,63.7,56.3,30.06,North,1,0.0,0.0,77,0.00,CLR,,0.00,WeatherDisplay:10.37,2013-08-19 08:11:00,
2013-08-19 03:16:00,63.7,56.0,30.06,North,1,0.0,0.0,76,0.00,CLR,,0.00,WeatherDisplay:10.37,2013-08-19 08:16:00,
2013-08-19 03:21:00,63.7,56.3,30.06,North,1,0.0,0.0,77,0.00,CLR,,0.00,WeatherDisplay:10.37,2013-08-19 08:21:00,
2013-08-19 03:26:00,63.5,56.2,30.06,North,1,0.0,0.0,77,0.00,CLR,,0.00,WeatherDisplay:10.37,2013-08-19 08:26:00,
2013-08-19 03:31:00,63.5,56.2,30.06,North,1,0.0,0.0,77,0.00,CLR,,0.00,WeatherDisplay:10.37,2013-08-19 08:31:00,
2013-08-19 03:36:00,63.5,56.2,30.06,North,1,0.0,0.0,77,0.00,CLR,,0.00,WeatherDisplay:10.37,2013-08-19 08:36:00,
2013-08-19 03:41:00,63.5,56.5,30.06,North,1,0.0,0.0,78,0.00,CLR,,0.00,WeatherDisplay:10.37,2013-08-19 08:41:00,
2013-08-19 03:46:00,63.5,56.5,30.06,North,1,0.0,0.0,78,0.00,CLR,,0.00,WeatherDisplay:10.37,2013-08-19 08:46:00,
2013-08-19 03:51:00,63.5,56.5,30.06,North,1,0.0,0.0,78,0.00,CLR,,0.00,WeatherDisplay:10.37,2013-08-19 08:51:00,
2013-08-19 03:56:00,63.5,56.5,30.06,North,1,0.0,0.0,78,0.00,CLR,,0.00,WeatherDisplay:10.37,2013-08-19 08:56:00,
2013-08-19 04:01:00,63.3,56.3,30.06,North,1,0.0,0.0,78,0.00,CLR,,0.00,WeatherDisplay:10.37,2013-08-19 09:01:00,
2013-08-19 04:06:00,63.3,56.3,30.06,North,1,0.0,0.0,78,0.00,CLR,,0.00,WeatherDisplay:10.37,2013-08-19 09:06:00,
2013-08-19 04:11:00,63.0,56.3,30.06,North,1,0.0,0.0,79,0.00,CLR,,0.00,WeatherDisplay:10.37,2013-08-19 09:11:00,
2013-08-19 04:16:00,63.0,56.0,30.06,North,1,0.0,0.0,78,0.00,CLR,,0.00,WeatherDisplay:10.37,2013-08-19 09:16:00,
2013-08-19 04:21:00,63.0,56.0,30.06,North,1,0.0,0.0,78,0.00,CLR,,0.00,WeatherDisplay:10.37,2013-08-19 09:21:00,
2013-08-19 04:26:00,62.8,56.2,30.06,North,1,0.0,0.0,79,0.00,CLR,,0.00,WeatherDisplay:10.37,2013-08-19 09:26:00,
2013-08-19 04:31:00,62.8,56.2,30.06,North,1,0.0,0.0,79,0.00,CLR,,0.00,WeatherDisplay:10.37,2013-08-19 09:31:00,
2013-08-19 04:36:00,62.6,56.0,30.06,North,1,0.0,0.0,79,0.00,CLR,,0.00,WeatherDisplay:10.37,2013-08-19 09:36:00,
2013-08-19 04:41:00,62.4,55.8,30.06,North,1,0.0,0.0,79,0.00,CLR,,0.00,WeatherDisplay:10.37,2013-08-19 09:41:00,
2013-08-19 04:46:00,62.4,56.2,30.06,North,1,0.0,0.0,80,0.00,CLR,,0.00,WeatherDisplay:10.37,2013-08-19 09:46:00,
2013-08-19 04:51:00,62.4,56.2,30.06,North,1,0.0,0.0,80,0.00,CLR,,0.00,WeatherDisplay:10.37,2013-08-19 09:51:00,
2013-08-19 04:56:00,62.2,56.0,30.06,North,1,0.0,0.0,80,0.00,CLR,,0.00,WeatherDisplay:10.37,2013-08-19 09:56:00,
2013-08-19 05:01:00,62.2,56.0,30.06,North,1,0.0,0.0,80,0.00,CLR,,0.00,WeatherDisplay:10.37,2013-08-19 10:01:00,
2013-08-19 05:06:00,62.1,55.8,30.06,North,1,0.0,0.0,80,0.00,CLR,,0.00,WeatherDisplay:10.37,2013-08-19 10:06:00,
2013-08-19 05:11:00,62.1,55.8,30.06,North,1,0.0,0.0,80,0.00,CLR,,0.00,WeatherDisplay:10.37,2013-08-19 10:11:00,
2013-08-19 05:16:00,62.1,55.8,30.06,North,1,0.0,0.0,80,0.00,CLR,,0.00,WeatherDisplay:10.37,2013-08-19 10:16:00,
2013-08-19 05:21:00,62.1,55.8,30.07,North,1,0.0,0.0,80,0.00,CLR,,0.00,WeatherDisplay:10.37,2013-08-19 10:21:00,
2013-08-19 05:26:00,62.1,56.2,30.06,North,1,0.0,0.0,81,0.00,CLR,,0.00,WeatherDisplay:10.37,2013-08-19 10:26:00,
2013-08-19 05:31:00,62.1,56.2,30.07,North,1,0.0,0.0,81,0.00,CLR,,0.00,WeatherDisplay:10.37,2013-08-19 10:31:00,
2013-08-19 05:36:00,62.1,56.2,30.07,North,1,0.0,0.0,81,0.00,CLR,,0.00,WeatherDisplay:10.37,2013-08-19 10:36:00,
2013-08-19 05:41:00,61.9,56.0,30.07,North,1,0.0,0.0,81,0.00,CLR,,0.00,WeatherDisplay:10.37,2013-08-19 10:41:00,
2013-08-19 05:46:00,61.9,56.0,30.07,North,1,0.0,0.0,81,0.00,CLR,,0.00,WeatherDisplay:10.37,2013-08-19 10:46:00,
2013-08-19 05:51:00,61.9,56.0,30.07,North,1,0.0,0.0,81,0.00,CLR,,0.00,WeatherDisplay:10.37,2013-08-19 10:51:00,
2013-08-19 05:56:00,61.9,56.3,30.06,North,1,0.0,0.0,82,0.00,CLR,,0.00,WeatherDisplay:10.37,2013-08-19 10:56:00,
2013-08-19 06:01:00,61.9,56.3,30.07,North,1,0.0,0.0,82,0.00,CLR,,0.00,WeatherDisplay:10.37,2013-08-19 11:01:00,
2013-08-19 06:06:00,61.9,56.3,30.07,North,1,0.0,0.0,82,0.00,CLR,,0.00,WeatherDisplay:10.37,2013-08-19 11:06:00,
2013-08-19 06:11:00,61.9,56.3,30.07,North,1,0.0,0.0,82,0.00,CLR,,0.00,WeatherDisplay:10.37,2013-08-19 11:11:00,
2013-08-19 06:16:00,61.9,56.3,30.07,North,1,0.0,0.0,82,0.00,CLR,,0.00,WeatherDisplay:10.37,2013-08-19 11:16:00,
2013-08-19 06:21:00,61.9,56.3,30.07,North,1,0.0,0.0,82,0.00,CLR,,0.00,WeatherDisplay:10.37,2013-08-19 11:21:00,
2013-08-19 06:26:00,61.9,56.3,30.07,North,1,0.0,0.0,82,0.00,CLR,,0.00,WeatherDisplay:10.37,2013-08-19 11:26:00,
2013-08-19 06:31:00,61.9,56.3,30.07,North,1,0.0,0.0,82,0.00,CLR,,0.00,WeatherDisplay:10.37,2013-08-19 11:31:00,
2013-08-19 06:36:00,61.9,56.3,30.07,North,1,0.0,0.0,82,0.00,CLR,,0.00,WeatherDisplay:10.37,2013-08-19 11:36:00,
2013-08-19 06:41:00,61.7,56.1,30.08,North,1,0.0,0.0,82,0.00,CLR,,0.00,WeatherDisplay:10.37,2013-08-19 11:41:00,
2013-08-19 06:46:00,61.7,56.1,30.08,North,1,0.0,0.0,82,0.00,CLR,,0.00,WeatherDisplay:10.37,2013-08-19 11:46:00,
2013-08-19 06:51:00,61.9,56.3,30.08,North,1,0.0,0.0,82,0.00,CLR,,0.00,WeatherDisplay:10.37,2013-08-19 11:51:00,
2013-08-19 06:56:00,61.9,56.3,30.08,North,1,0.0,0.0,82,0.00,CLR,,0.00,WeatherDisplay:10.37,2013-08-19 11:56:00,
2013-08-19 07:01:00,61.9,56.3,30.08,North,1,0.0,0.0,82,0.00,CLR,,0.00,WeatherDisplay:10.37,2013-08-19 12:01:00,
2013-08-19 07:06:00,61.9,56.3,30.09,North,1,0.0,0.0,82,0.00,CLR,,0.00,WeatherDisplay:10.37,2013-08-19 12:06:00,
2013-08-19 07:11:00,62.1,56.5,30.09,North,1,0.0,0.0,82,0.00,CLR,,0.00,WeatherDisplay:10.37,2013-08-19 12:11:00,
2013-08-19 07:16:00,62.1,56.5,30.09,North,1,0.0,0.0,82,0.00,CLR,,0.00,WeatherDisplay:10.37,2013-08-19 12:16:00,
2013-08-19 07:21:00,62.1,56.5,30.08,North,1,0.0,0.0,82,0.00,CLR,,0.00,WeatherDisplay:10.37,2013-08-19 12:21:00,
2013-08-19 07:26:00,62.4,56.9,30.09,North,1,0.0,0.0,82,0.00,CLR,,0.00,WeatherDisplay:10.37,2013-08-19 12:26:00,
2013-08-19 07:31:00,62.6,57.4,30.09,North,1,0.0,0.0,83,0.00,CLR,,0.00,WeatherDisplay:10.37,2013-08-19 12:31:00,
2013-08-19 07:36:00,62.8,57.5,30.09,North,1,0.0,0.0,83,0.00,CLR,,0.00,WeatherDisplay:10.37,2013-08-19 12:36:00,
2013-08-19 07:41:00,63.0,57.7,30.09,North,1,0.0,0.0,83,0.00,CLR,,0.00,WeatherDisplay:10.37,2013-08-19 12:41:00,
2013-08-19 07:46:00,63.5,58.2,30.09,North,1,0.0,0.0,83,0.00,CLR,,0.00,WeatherDisplay:10.37,2013-08-19 12:46:00,
2013-08-19 07:51:00,63.5,58.2,30.09,North,1,0.0,0.0,83,0.00,CLR,,0.00,WeatherDisplay:10.37,2013-08-19 12:51:00,
2013-08-19 07:56:00,63.5,58.2,30.09,North,1,0.0,0.0,83,0.00,CLR,,0.00,WeatherDisplay:10.37,2013-08-19 12:56:00,
2013-08-19 08:01:00,63.7,58.4,30.08,North,1,0.0,0.0,83,0.00,CLR,,0.00,WeatherDisplay:10.37,2013-08-19 13:01:00,
2013-08-19 08:06:00,63.9,58.6,30.08,North,1,0.0,0.0,83,0.00,CLR,,0.00,WeatherDisplay:10.37,2013-08-19 13:06:00,
2013-08-19 08:11:00,63.9,58.6,30.09,North,1,0.0,0.0,83,0.00,CLR,,0.00,WeatherDisplay:10.37,2013-08-19 13:11:00,
2013-08-19 08:16:00,64.6,59.3,30.09,North,1,0.0,0.0,83,0.00,CLR,,0.00,WeatherDisplay:10.37,2013-08-19 13:16:00,
2013-08-19 08:21:00,65.1,59.8,30.09,North,1,0.0,0.0,83,0.00,CLR,,0.00,WeatherDisplay:10.37,2013-08-19 13:21:00,
2013-08-19 08:26:00,65.5,60.2,30.09,North,1,0.0,0.0,83,0.00,CLR,,0.00,WeatherDisplay:10.37,2013-08-19 13:26:00,
2013-08-19 08:31:00,66.0,60.7,30.09,North,1,0.0,0.0,83,0.00,CLR,,0.00,WeatherDisplay:10.37,2013-08-19 13:31:00,
2013-08-19 08:36:00,66.6,60.9,30.08,North,1,0.0,0.0,82,0.00,CLR,,0.00,WeatherDisplay:10.37,2013-08-19 13:36:00,
2013-08-19 08:41:00,66.9,61.2,30.09,North,1,0.0,0.0,82,0.00,CLR,,0.00,WeatherDisplay:10.37,2013-08-19 13:41:00,
2013-08-19 08:46:00,68.0,61.9,30.09,North,1,0.0,0.0,81,0.00,CLR,,0.00,WeatherDisplay:10.37,2013-08-19 13:46:00,
2013-08-19 08:51:00,68.7,62.3,30.09,North,1,0.0,0.0,80,0.00,CLR,,0.00,WeatherDisplay:10.37,2013-08-19 13:51:00,
2013-08-19 08:56:00,69.4,62.6,30.09,North,1,0.0,0.0,79,0.00,CLR,,0.00,WeatherDisplay:10.37,2013-08-19 13:56:00,
2013-08-19 09:01:00,70.2,63.0,30.09,North,1,0.0,0.0,78,0.00,CLR,,0.00,WeatherDisplay:10.37,2013-08-19 14:01:00,
2013-08-19 09:06:00,71.4,63.5,30.09,North,1,0.0,0.0,76,0.00,CLR,,0.00,WeatherDisplay:10.37,2013-08-19 14:06:00,
2013-08-19 09:11:00,72.1,63.4,30.09,North,1,0.0,0.0,74,0.00,CLR,,0.00,WeatherDisplay:10.37,2013-08-19 14:11:00,
2013-08-19 09:16:00,73.2,64.4,30.09,North,1,0.0,0.0,74,0.00,CLR,,0.00,WeatherDisplay:10.37,2013-08-19 14:16:00,
2013-08-19 09:21:00,74.1,64.5,30.09,North,1,0.0,0.0,72,0.00,CLR,,0.00,WeatherDisplay:10.37,2013-08-19 14:21:00,
2013-08-19 09:26:00,74.7,65.0,30.09,North,1,0.0,0.0,72,0.00,CLR,,0.00,WeatherDisplay:10.37,2013-08-19 14:26:00,
2013-08-19 09:31:00,75.4,64.9,30.09,North,1,0.0,0.0,70,0.00,CLR,,0.00,WeatherDisplay:10.37,2013-08-19 14:31:00,
2013-08-19 09:36:00,76.3,65.4,30.09,North,1,0.0,0.0,69,0.00,CLR,,0.00,WeatherDisplay:10.37,2013-08-19 14:36:00,
2013-08-19 09:41:00,76.8,65.5,30.09,North,1,0.0,0.0,68,0.00,CLR,,0.00,WeatherDisplay:10.37,2013-08-19 14:41:00,
2013-08-19 09:46:00,77.4,64.7,30.09,North,1,0.0,0.0,65,0.00,CLR,,0.00,WeatherDisplay:10.37,2013-08-19 14:46:00,
2013-08-19 09:51:00,77.5,64.8,30.10,North,1,0.0,0.0,65,0.00,CLR,,0.00,WeatherDisplay:10.37,2013-08-19 14:51:00,
2013-08-19 09:56:00,78.1,65.4,30.10,North,1,0.0,0.0,65,0.00,CLR,,0.00,WeatherDisplay:10.37,2013-08-19 14:56:00,
2013-08-19 10:01:00,78.4,64.8,30.10,North,1,0.0,0.0,63,0.00,CLR,,0.00,WeatherDisplay:10.37,2013-08-19 15:01:00,
2013-08-19 10:06:00,78.8,64.7,30.10,North,1,0.0,0.0,62,0.00,CLR,,0.00,WeatherDisplay:10.37,2013-08-19 15:06:00,
2013-08-19 10:11:00,79.2,65.0,30.10,North,1,0.0,0.0,62,0.00,CLR,,0.00,WeatherDisplay:10.37,2013-08-19 15:11:00,
2013-08-19 10:16:00,79.2,65.0,30.10,North,1,0.0,0.0,62,0.00,CLR,,0.00,WeatherDisplay:10.37,2013-08-19 15:16:00,
2013-08-19 10:21:00,79.9,65.2,30.10,North,1,0.0,0.0,61,0.00,CLR,,0.00,WeatherDisplay:10.37,2013-08-19 15:21:00,
2013-08-19 10:26:00,79.9,64.8,30.09,North,1,0.0,0.0,60,0.00,CLR,,0.00,WeatherDisplay:10.37,2013-08-19 15:26:00,
2013-08-19 10:31:00,79.5,64.9,30.10,North,1,0.0,0.0,61,0.00,CLR,,0.00,WeatherDisplay:10.37,2013-08-19 15:31:00,
2013-08-19 10:36:00,79.2,64.1,30.10,North,1,0.0,0.0,60,0.00,CLR,,0.00,WeatherDisplay:10.37,2013-08-19 15:36:00,
2013-08-19 10:41:00,79.5,64.4,30.10,North,1,0.0,0.0,60,0.00,CLR,,0.00,WeatherDisplay:10.37,2013-08-19 15:41:00,
2013-08-19 10:46:00,80.2,64.6,30.10,North,1,0.0,0.0,59,0.00,CLR,,0.00,WeatherDisplay:10.37,2013-08-19 15:46:00,
2013-08-19 10:51:00,81.0,64.8,30.10,North,1,0.0,0.0,58,0.00,CLR,,0.00,WeatherDisplay:10.37,2013-08-19 15:51:00,
2013-08-19 10:56:00,81.0,64.8,30.10,North,1,0.0,0.0,58,0.00,CLR,,0.00,WeatherDisplay:10.37,2013-08-19 15:56:00,
2013-08-19 11:01:00,80.8,64.1,30.10,North,1,0.0,0.0,57,0.00,CLR,,0.00,WeatherDisplay:10.37,2013-08-19 16:01:00,
2013-08-19 11:06:00,81.0,64.3,30.10,North,1,0.0,0.0,57,0.00,CLR,,0.00,WeatherDisplay:10.37,2013-08-19 16:06:00,
2013-08-19 11:11:00,80.8,64.1,30.10,North,1,0.0,0.0,57,0.00,CLR,,0.00,WeatherDisplay:10.37,2013-08-19 16:11:00,
2013-08-19 11:16:00,80.8,63.6,30.10,North,1,0.0,0.0,56,0.00,CLR,,0.00,WeatherDisplay:10.37,2013-08-19 16:16:00,
2013-08-19 11:21:00,81.0,63.8,30.10,North,1,0.0,0.0,56,0.00,CLR,,0.00,WeatherDisplay:10.37,2013-08-19 16:21:00,
2013-08-19 11:26:00,81.0,64.3,30.10,North,1,0.0,0.0,57,0.00,CLR,,0.00,WeatherDisplay:10.37,2013-08-19 16:26:00,
2013-08-19 11:31:00,81.7,65.0,30.10,North,1,0.0,0.0,57,0.00,CLR,,0.00,WeatherDisplay:10.37,2013-08-19 16:31:00,
2013-08-19 11:36:00,82.0,64.8,30.09,North,1,0.0,0.0,56,0.00,CLR,,0.00,WeatherDisplay:10.37,2013-08-19 16:36:00,
2013-08-19 11:41:00,82.8,64.9,30.10,North,1,0.0,0.0,55,0.00,CLR,,0.00,WeatherDisplay:10.37,2013-08-19 16:41:00,
2013-08-19 11:46:00,83.1,64.8,30.10,North,1,0.0,0.0,54,0.00,CLR,,0.00,WeatherDisplay:10.37,2013-08-19 16:46:00,
2013-08-19 11:51:00,83.5,65.1,30.09,North,1,0.0,0.0,54,0.00,CLR,,0.00,WeatherDisplay:10.37,2013-08-19 16:51:00,
2013-08-19 11:56:00,84.0,64.5,30.09,North,1,0.0,0.0,52,0.00,CLR,,0.00,WeatherDisplay:10.37,2013-08-19 16:56:00,
2013-08-19 12:01:00,84.0,64.5,30.09,North,1,0.0,0.0,52,0.00,CLR,,0.00,WeatherDisplay:10.37,2013-08-19 17:01:00,
2013-08-19 12:06:00,84.0,64.5,30.09,North,1,0.0,0.0,52,0.00,CLR,,0.00,WeatherDisplay:10.37,2013-08-19 17:06:00,
2013-08-19 12:11:00,84.4,64.3,30.09,North,1,0.0,0.0,51,0.00,CLR,,0.00,WeatherDisplay:10.37,2013-08-19 17:11:00,
2013-08-19 12:16:00,84.6,63.9,30.08,North,1,0.0,0.0,50,0.00,CLR,,0.00,WeatherDisplay:10.37,2013-08-19 17:16:00,
2013-08-19 12:21:00,84.6,64.4,30.09,North,1,0.0,0.0,51,0.00,CLR,,0.00,WeatherDisplay:10.37,2013-08-19 17:21:00,
2013-08-19 12:26:00,84.7,64.6,30.08,North,1,0.0,0.0,51,0.00,CLR,,0.00,WeatherDisplay:10.37,2013-08-19 17:26:00,
2013-08-19 12:31:00,84.9,64.8,30.08,North,1,0.0,0.0,51,0.00,CLR,,0.00,WeatherDisplay:10.37,2013-08-19 17:31:00,
2013-08-19 12:36:00,85.1,64.4,30.08,North,1,0.0,0.0,50,0.00,CLR,,0.00,WeatherDisplay:10.37,2013-08-19 17:36:00,
2013-08-19 12:41:00,85.1,64.4,30.08,North,1,0.0,0.0,50,0.00,CLR,,0.00,WeatherDisplay:10.37,2013-08-19 17:41:00,
2013-08-19 12:46:00,85.5,64.7,30.08,North,1,0.0,0.0,50,0.00,CLR,,0.00,WeatherDisplay:10.37,2013-08-19 17:46:00,
2013-08-19 12:51:00,85.8,64.5,30.08,North,1,0.0,0.0,49,0.00,CLR,,0.00,WeatherDisplay:10.37,2013-08-19 17:51:00,
2013-08-19 12:56:00,86.0,64.0,30.08,North,1,0.0,0.0,48,0.00,CLR,,0.00,WeatherDisplay:10.37,2013-08-19 17:56:00,
2013-08-19 13:01:00,86.2,64.2,30.08,North,1,0.0,0.0,48,0.00,CLR,,0.00,WeatherDisplay:10.37,2013-08-19 18:01:00,
2013-08-19 13:06:00,86.4,64.9,30.07,North,1,0.0,0.0,49,0.00,CLR,,0.00,WeatherDisplay:10.37,2013-08-19 18:06:00,
2013-08-19 13:11:00,86.7,64.7,30.08,North,1,0.0,0.0,48,0.00,CLR,,0.00,WeatherDisplay:10.37,2013-08-19 18:11:00,
2013-08-19 13:16:00,86.5,63.9,30.07,North,1,0.0,0.0,47,0.00,CLR,,0.00,WeatherDisplay:10.37,2013-08-19 18:16:00,
2013-08-19 13:21:00,86.4,63.8,30.07,North,1,0.0,0.0,47,0.00,CLR,,0.00,WeatherDisplay:10.37,2013-08-19 18:21:00,
2013-08-19 13:26:00,86.5,64.5,30.07,North,1,0.0,0.0,48,0.00,CLR,,0.00,WeatherDisplay:10.37,2013-08-19 18:26:00,
2013-08-19 13:31:00,86.7,64.7,30.07,North,1,0.0,0.0,48,0.00,CLR,,0.00,WeatherDisplay:10.37,2013-08-19 18:31:00,
2013-08-19 13:36:00,86.7,64.1,30.06,North,1,0.0,0.0,47,0.00,CLR,,0.00,WeatherDisplay:10.37,2013-08-19 18:36:00,
2013-08-19 13:41:00,86.7,64.7,30.06,North,1,0.0,0.0,48,0.00,CLR,,0.00,WeatherDisplay:10.37,2013-08-19 18:41:00,
2013-08-19 13:46:00,86.7,64.7,30.06,North,1,0.0,0.0,48,0.00,CLR,,0.00,WeatherDisplay:10.37,2013-08-19 18:46:00,
2013-08-19 13:51:00,86.7,64.1,30.06,North,1,0.0,0.0,47,0.00,CLR,,0.00,WeatherDisplay:10.37,2013-08-19 18:51:00,
2013-08-19 13:56:00,86.9,64.8,30.06,North,1,0.0,0.0,48,0.00,CLR,,0.00,WeatherDisplay:10.37,2013-08-19 18:56:00,
2013-08-19 14:01:00,86.9,64.2,30.06,North,1,0.0,0.0,47,0.00,CLR,,0.00,WeatherDisplay:10.37,2013-08-19 19:01:00,
2013-08-19 14:06:00,86.9,64.2,30.06,North,1,0.0,0.0,47,0.00,CLR,,0.00,WeatherDisplay:10.37,2013-08-19 19:06:00,
2013-08-19 14:11:00,86.4,63.8,30.05,North,1,0.0,0.0,47,0.00,CLR,,0.00,WeatherDisplay:10.37,2013-08-19 19:11:00,
2013-08-19 14:16:00,86.5,63.3,30.05,North,1,0.0,0.0,46,0.00,CLR,,0.00,WeatherDisplay:10.37,2013-08-19 19:16:00,
2013-08-19 14:21:00,86.5,63.9,30.05,North,1,0.0,0.0,47,0.00,CLR,,0.00,WeatherDisplay:10.37,2013-08-19 19:21:00,
2013-08-19 14:26:00,86.4,63.1,30.05,North,1,0.0,0.0,46,0.00,CLR,,0.00,WeatherDisplay:10.37,2013-08-19 19:26:00,
2013-08-19 14:31:00,86.4,63.8,30.05,North,1,0.0,0.0,47,0.00,CLR,,0.00,WeatherDisplay:10.37,2013-08-19 19:31:00,
2013-08-19 14:36:00,86.4,63.8,30.05,North,1,0.0,0.0,47,0.00,CLR,,0.00,WeatherDisplay:10.37,2013-08-19 19:36:00,
2013-08-19 14:41:00,86.2,63.6,30.05,North,1,0.0,0.0,47,0.00,CLR,,0.00,WeatherDisplay:10.37,2013-08-19 19:41:00,
2013-08-19 14:46:00,86.4,63.8,30.05,North,1,0.0,0.0,47,0.00,CLR,,0.00,WeatherDisplay:10.37,2013-08-19 19:46:00,
2013-08-19 14:51:00,86.4,63.8,30.05,North,1,0.0,0.0,47,0.00,CLR,,0.00,WeatherDisplay:10.37,2013-08-19 19:51:00,
2013-08-19 14:56:00,86.4,63.8,30.05,North,1,0.0,0.0,47,0.00,CLR,,0.00,WeatherDisplay:10.37,2013-08-19 19:56:00,
2013-08-19 15:01:00,86.7,64.1,30.04,North,1,0.0,0.0,47,0.00,CLR,,0.00,WeatherDisplay:10.37,2013-08-19 20:01:00,
2013-08-19 15:06:00,86.7,64.1,30.04,North,1,0.0,0.0,47,0.00,CLR,,0.00,WeatherDisplay:10.37,2013-08-19 20:06:00,
2013-08-19 15:11:00,87.1,64.4,30.04,North,1,0.0,0.0,47,0.00,CLR,,0.00,WeatherDisplay:10.37,2013-08-19 20:11:00,
2013-08-19 15:16:00,87.1,63.8,30.03,North,1,0.0,0.0,46,0.00,CLR,,0.00,WeatherDisplay:10.37,2013-08-19 20:16:00,
2013-08-19 15:21:00,86.9,63.6,30.04,North,1,0.0,0.0,46,0.00,CLR,,0.00,WeatherDisplay:10.37,2013-08-19 20:21:00,
2013-08-19 15:26:00,86.7,64.1,30.03,North,1,0.0,0.0,47,0.00,CLR,,0.00,WeatherDisplay:10.37,2013-08-19 20:26:00,
2013-08-19 15:31:00,86.7,64.1,30.03,North,1,0.0,0.0,47,0.00,CLR,,0.00,WeatherDisplay:10.37,2013-08-19 20:31:00,
2013-08-19 15:36:00,86.7,64.1,30.03,North,1,0.0,0.0,47,0.00,CLR,,0.00,WeatherDisplay:10.37,2013-08-19 20:36:00,
2013-08-19 15:41:00,86.7,63.5,30.03,North,1,0.0,0.0,46,0.00,CLR,,0.00,WeatherDisplay:10.37,2013-08-19 20:41:00,
2013-08-19 15:46:00,86.5,63.9,30.02,North,1,0.0,0.0,47,0.00,CLR,,0.00,WeatherDisplay:10.37,2013-08-19 20:46:00,
2013-08-19 15:51:00,86.4,63.1,30.02,North,1,0.0,0.0,46,0.00,CLR,,0.00,WeatherDisplay:10.37,2013-08-19 20:51:00,
2013-08-19 15:56:00,86.2,63.6,30.02,North,1,0.0,0.0,47,0.00,CLR,,0.00,WeatherDisplay:10.37,2013-08-19 20:56:00,
2013-08-19 16:01:00,85.8,63.3,30.01,North,1,0.0,0.0,47,0.00,CLR,,0.00,WeatherDisplay:10.37,2013-08-19 21:01:00,
2013-08-19 16:06:00,85.5,63.5,30.01,North,1,0.0,0.0,48,0.00,CLR,,0.00,WeatherDisplay:10.37,2013-08-19 21:06:00,
2013-08-19 16:11:00,85.1,63.8,30.01,North,1,0.0,0.0,49,0.00,CLR,,0.00,WeatherDisplay:10.37,2013-08-19 21:11:00,
2013-08-19 16:16:00,85.1,63.8,30.01,North,1,0.0,0.0,49,0.00,CLR,,0.00,WeatherDisplay:10.37,2013-08-19 21:16:00,
2013-08-19 16:21:00,85.1,63.8,30.01,North,1,0.0,0.0,49,0.00,CLR,,0.00,WeatherDisplay:10.37,2013-08-19 21:21:00,
2013-08-19 16:26:00,85.3,64.0,30.01,North,1,0.0,0.0,49,0.00,CLR,,0.00,WeatherDisplay:10.37,2013-08-19 21:26:00,
2013-08-19 16:31:00,85.3,64.0,30.01,North,1,0.0,0.0,49,0.00,CLR,,0.00,WeatherDisplay:10.37,2013-08-19 21:31:00,
2013-08-19 16:36:00,85.3,64.0,30.01,North,1,0.0,0.0,49,0.00,CLR,,0.00,WeatherDisplay:10.37,2013-08-19 21:36:00,
2013-08-19 16:41:00,84.9,63.0,30.01,North,1,0.0,0.0,48,0.00,CLR,,0.00,WeatherDisplay:10.37,2013-08-19 21:41:00,
2013-08-19 16:46:00,84.9,63.0,30.01,North,1,0.0,0.0,48,0.00,CLR,,0.00,WeatherDisplay:10.37,2013-08-19 21:46:00,
2013-08-19 16:51:00,84.9,62.4,30.01,North,1,0.0,0.0,47,0.00,CLR,,0.00,WeatherDisplay:10.37,2013-08-19 21:51:00,
2013-08-19 16:56:00,84.6,62.7,30.01,North,1,0.0,0.0,48,0.00,CLR,,0.00,WeatherDisplay:10.37,2013-08-19 21:56:00,
2013-08-19 17:01:00,84.6,62.7,30.01,North,1,0.0,0.0,48,0.00,CLR,,0.00,WeatherDisplay:10.37,2013-08-19 22:01:00,
2013-08-19 17:06:00,84.2,63.0,30.01,North,1,0.0,0.0,49,0.00,CLR,,0.00,WeatherDisplay:10.37,2013-08-19 22:06:00,
2013-08-19 17:11:00,84.0,63.4,30.01,North,1,0.0,0.0,50,0.00,CLR,,0.00,WeatherDisplay:10.37,2013-08-19 22:11:00,
2013-08-19 17:16:00,84.0,63.4,30.00,North,1,0.0,0.0,50,0.00,CLR,,0.00,WeatherDisplay:10.37,2013-08-19 22:16:00,
2013-08-19 17:21:00,83.7,63.6,30.00,North,1,0.0,0.0,51,0.00,CLR,,0.00,WeatherDisplay:10.37,2013-08-19 22:21:00,
2013-08-19 17:26:00,83.7,63.6,30.00,North,1,0.0,0.0,51,0.00,CLR,,0.00,WeatherDisplay:10.37,2013-08-19 22:26:00,
2013-08-19 17:31:00,83.7,63.6,30.00,North,1,0.0,0.0,51,0.00,CLR,,0.00,WeatherDisplay:10.37,2013-08-19 22:31:00,
2013-08-19 17:36:00,83.7,63.6,30.00,North,1,0.0,0.0,51,0.00,CLR,,0.00,WeatherDisplay:10.37,2013-08-19 22:36:00,
2013-08-19 17:41:00,83.7,63.6,30.00,North,1,0.0,0.0,51,0.00,CLR,,0.00,WeatherDisplay:10.37,2013-08-19 22:41:00,
2013-08-19 17:46:00,83.5,63.4,30.00,North,1,0.0,0.0,51,0.00,CLR,,0.00,WeatherDisplay:10.37,2013-08-19 22:46:00,
2013-08-19 17:51:00,83.5,63.4,30.00,North,1,0.0,0.0,51,0.00,CLR,,0.00,WeatherDisplay:10.37,2013-08-19 22:51:00,
2013-08-19 17:56:00,83.5,63.4,29.99,North,1,0.0,0.0,51,0.00,CLR,,0.00,WeatherDisplay:10.37,2013-08-19 22:56:00,
2013-08-19 18:01:00,83.3,63.3,30.00,North,1,0.0,0.0,51,0.00,CLR,,0.00,WeatherDisplay:10.37,2013-08-19 23:01:00,
2013-08-19 18:06:00,83.3,63.8,30.00,North,1,0.0,0.0,52,0.00,CLR,,0.00,WeatherDisplay:10.37,2013-08-19 23:06:00,
2013-08-19 18:11:00,83.1,63.7,30.00,North,1,0.0,0.0,52,0.00,CLR,,0.00,WeatherDisplay:10.37,2013-08-19 23:11:00,
2013-08-19 18:16:00,82.9,63.5,29.99,North,1,0.0,0.0,52,0.00,CLR,,0.00,WeatherDisplay:10.37,2013-08-19 23:16:00,
2013-08-19 18:21:00,82.6,63.2,29.99,North,1,0.0,0.0,52,0.00,CLR,,0.00,WeatherDisplay:10.37,2013-08-19 23:21:00,
2013-08-19 18:26:00,82.6,63.7,29.99,North,1,0.0,0.0,53,0.00,CLR,,0.00,WeatherDisplay:10.37,2013-08-19 23:26:00,
2013-08-19 18:31:00,82.2,63.4,29.99,North,1,0.0,0.0,53,0.00,CLR,,0.00,WeatherDisplay:10.37,2013-08-19 23:31:00,
2013-08-19 18:36:00,82.0,63.8,29.99,North,1,0.0,0.0,54,0.00,CLR,,0.00,WeatherDisplay:10.37,2013-08-19 23:36:00,
2013-08-19 18:41:00,81.9,63.6,29.99,North,1,0.0,0.0,54,0.00,CLR,,0.00,WeatherDisplay:10.37,2013-08-19 23:41:00,
2013-08-19 18:46:00,81.5,63.3,29.99,North,1,0.0,0.0,54,0.00,CLR,,0.00,WeatherDisplay:10.37,2013-08-19 23:46:00,
2013-08-19 18:51:00,81.3,63.1,29.99,North,1,0.0,0.0,54,0.00,CLR,,0.00,WeatherDisplay:10.37,2013-08-19 23:51:00,
2013-08-19 18:56:00,81.0,63.3,29.99,North,1,0.0,0.0,55,0.00,CLR,,0.00,WeatherDisplay:10.37,2013-08-19 23:56:00,
2013-08-19 19:01:00,80.8,63.1,29.99,North,1,0.0,0.0,55,0.00,CLR,,0.00,WeatherDisplay:10.37,2013-08-20 00:01:00,
2013-08-19 19:06:00,80.6,62.9,29.99,North,1,0.0,0.0,55,0.00,CLR,,0.00,WeatherDisplay:10.37,2013-08-20 00:06:00,
2013-08-19 19:11:00,80.4,63.3,29.99,North,1,0.0,0.0,56,0.00,CLR,,0.00,WeatherDisplay:10.37,2013-08-20 00:11:00,
2013-08-19 19:16:00,80.2,63.1,29.99,North,1,0.0,0.0,56,0.00,CLR,,0.00,WeatherDisplay:10.37,2013-08-20 00:16:00,
2013-08-19 19:21:00,80.1,63.5,29.99,North,1,0.0,0.0,57,0.00,CLR,,0.00,WeatherDisplay:10.37,2013-08-20 00:21:00,
2013-08-19 19:26:00,79.9,63.8,29.99,North,1,0.0,0.0,58,0.00,CLR,,0.00,WeatherDisplay:10.37,2013-08-20 00:26:00,
2013-08-19 19:31:00,79.7,63.6,29.99,North,1,0.0,0.0,58,0.00,CLR,,0.00,WeatherDisplay:10.37,2013-08-20 00:31:00,
2013-08-19 19:36:00,79.3,63.8,29.99,North,1,0.0,0.0,59,0.00,CLR,,0.00,WeatherDisplay:10.37,2013-08-20 00:36:00,
2013-08-19 19:41:00,79.2,63.6,29.99,North,1,0.0,0.0,59,0.00,CLR,,0.00,WeatherDisplay:10.37,2013-08-20 00:41:00,
2013-08-19 19:46:00,79.0,63.9,29.99,North,1,0.0,0.0,60,0.00,CLR,,0.00,WeatherDisplay:10.37,2013-08-20 00:46:00,
2013-08-19 19:51:00,78.6,63.6,29.99,North,1,0.0,0.0,60,0.00,CLR,,0.00,WeatherDisplay:10.37,2013-08-20 00:51:00,
2013-08-19 19:56:00,78.3,63.2,29.99,North,1,0.0,0.0,60,0.00,CLR,,0.00,WeatherDisplay:10.37,2013-08-20 00:56:00,
2013-08-19 20:01:00,78.1,63.1,29.99,North,1,0.0,0.0,60,0.00,CLR,,0.00,WeatherDisplay:10.37,2013-08-20 01:01:00,
2013-08-19 20:06:00,77.9,63.4,29.99,North,1,0.0,0.0,61,0.00,CLR,,0.00,WeatherDisplay:10.37,2013-08-20 01:06:00,
2013-08-19 20:11:00,77.5,63.0,29.99,North,1,0.0,0.0,61,0.00,CLR,,0.00,WeatherDisplay:10.37,2013-08-20 01:11:00,
2013-08-19 20:16:00,77.4,62.9,30.00,North,1,0.0,0.0,61,0.00,CLR,,0.00,WeatherDisplay:10.37,2013-08-20 01:16:00,
2013-08-19 20:21:00,77.4,63.3,29.99,North,1,0.0,0.0,62,0.00,CLR,,0.00,WeatherDisplay:10.37,2013-08-20 01:21:00,
2013-08-19 20:26:00,76.8,62.8,29.99,North,1,0.0,0.0,62,0.00,CLR,,0.00,WeatherDisplay:10.37,2013-08-20 01:26:00,
2013-08-19 20:31:00,76.6,62.6,29.99,North,1,0.0,0.0,62,0.00,CLR,,0.00,WeatherDisplay:10.37,2013-08-20 01:31:00,
2013-08-19 20:36:00,76.5,62.9,29.99,North,1,0.0,0.0,63,0.00,CLR,,0.00,WeatherDisplay:10.37,2013-08-20 01:36:00,
2013-08-19 20:41:00,76.3,62.8,30.00,North,1,0.0,0.0,63,0.00,CLR,,0.00,WeatherDisplay:10.37,2013-08-20 01:41:00,
2013-08-19 20:46:00,75.9,62.9,30.00,North,1,0.0,0.0,64,0.00,CLR,,0.00,WeatherDisplay:10.37,2013-08-20 01:46:00,
2013-08-19 20:51:00,75.6,62.5,30.00,North,1,0.0,0.0,64,0.00,CLR,,0.00,WeatherDisplay:10.37,2013-08-20 01:51:00,
2013-08-19 20:56:00,75.6,63.0,30.00,North,1,0.0,0.0,65,0.00,CLR,,0.00,WeatherDisplay:10.37,2013-08-20 01:56:00,
2013-08-19 21:01:00,75.2,62.6,30.00,North,1,0.0,0.0,65,0.00,CLR,,0.00,WeatherDisplay:10.37,2013-08-20 02:01:00,
2013-08-19 21:06:00,75.0,62.5,30.00,North,1,0.0,0.0,65,0.00,CLR,,0.00,WeatherDisplay:10.37,2013-08-20 02:06:00,
2013-08-19 21:11:00,75.0,62.5,30.00,North,1,0.0,0.0,65,0.00,CLR,,0.00,WeatherDisplay:10.37,2013-08-20 02:11:00,
2013-08-19 21:16:00,74.7,62.5,30.01,North,1,0.0,0.0,66,0.00,CLR,,0.00,WeatherDisplay:10.37,2013-08-20 02:16:00,
2013-08-19 21:21:00,74.5,62.4,30.01,North,1,0.0,0.0,66,0.00,CLR,,0.00,WeatherDisplay:10.37,2013-08-20 02:21:00,
2013-08-19 21:26:00,74.3,62.6,30.01,North,1,0.0,0.0,67,0.00,CLR,,0.00,WeatherDisplay:10.37,2013-08-20 02:26:00,
2013-08-19 21:31:00,74.1,62.5,30.01,North,1,0.0,0.0,67,0.00,CLR,,0.00,WeatherDisplay:10.37,2013-08-20 02:31:00,
2013-08-19 21:36:00,73.8,62.1,30.01,North,1,0.0,0.0,67,0.00,CLR,,0.00,WeatherDisplay:10.37,2013-08-20 02:36:00,
2013-08-19 21:41:00,73.6,62.4,30.01,North,1,0.0,0.0,68,0.00,CLR,,0.00,WeatherDisplay:10.37,2013-08-20 02:41:00,
2013-08-19 21:46:00,73.6,62.4,30.01,North,1,0.0,0.0,68,0.00,CLR,,0.00,WeatherDisplay:10.37,2013-08-20 02:46:00,
2013-08-19 21:51:00,73.2,62.0,30.01,North,1,0.0,0.0,68,0.00,CLR,,0.00,WeatherDisplay:10.37,2013-08-20 02:51:00,
2013-08-19 21:56:00,73.0,61.9,30.01,North,1,0.0,0.0,68,0.00,CLR,,0.00,WeatherDisplay:10.37,2013-08-20 02:56:00,
2013-08-19 22:01:00,72.9,62.1,30.01,North,1,0.0,0.0,69,0.00,CLR,,0.00,WeatherDisplay:10.37,2013-08-20 03:01:00,
2013-08-19 22:06:00,72.7,61.9,30.01,North,1,0.0,0.0,69,0.00,CLR,,0.00,WeatherDisplay:10.37,2013-08-20 03:06:00,
2013-08-19 22:11:00,72.7,61.9,30.01,North,1,0.0,0.0,69,0.00,CLR,,0.00,WeatherDisplay:10.37,2013-08-20 03:11:00,
2013-08-19 22:16:00,72.5,62.2,30.01,North,1,0.0,0.0,70,0.00,CLR,,0.00,WeatherDisplay:10.37,2013-08-20 03:16:00,
2013-08-19 22:21:00,72.3,62.0,30.01,North,1,0.0,0.0,70,0.00,CLR,,0.00,WeatherDisplay:10.37,2013-08-20 03:21:00,
2013-08-19 22:26:00,72.1,61.8,30.02,North,1,0.0,0.0,70,0.00,CLR,,0.00,WeatherDisplay:10.37,2013-08-20 03:26:00,
2013-08-19 22:31:00,72.0,61.6,30.01,North,1,0.0,0.0,70,0.00,CLR,,0.00,WeatherDisplay:10.37,2013-08-20 03:31:00,
2013-08-19 22:36:00,72.0,61.6,30.02,North,1,0.0,0.0,70,0.00,CLR,,0.00,WeatherDisplay:10.37,2013-08-20 03:36:00,
2013-08-19 22:41:00,71.6,61.7,30.01,North,1,0.0,0.0,71,0.00,CLR,,0.00,WeatherDisplay:10.37,2013-08-20 03:41:00,
2013-08-19 22:46:00,71.4,61.5,30.02,North,1,0.0,0.0,71,0.00,CLR,,0.00,WeatherDisplay:10.37,2013-08-20 03:46:00,
2013-08-19 22:51:00,71.4,61.5,30.02,North,1,0.0,0.0,71,0.00,CLR,,0.00,WeatherDisplay:10.37,2013-08-20 03:51:00,
2013-08-19 22:56:00,71.2,61.4,30.02,North,1,0.0,0.0,71,0.00,CLR,,0.00,WeatherDisplay:10.37,2013-08-20 03:56:00,
2013-08-19 23:01:00,71.1,61.2,30.02,North,1,0.0,0.0,71,0.00,CLR,,0.00,WeatherDisplay:10.37,2013-08-20 04:01:00,
2013-08-19 23:06:00,71.1,61.6,30.02,North,1,0.0,0.0,72,0.00,CLR,,0.00,WeatherDisplay:10.37,2013-08-20 04:06:00,
2013-08-19 23:11:00,70.9,61.4,30.02,North,1,0.0,0.0,72,0.00,CLR,,0.00,WeatherDisplay:10.37,2013-08-20 04:11:00,
2013-08-19 23:16:00,70.7,61.2,30.02,North,1,0.0,0.0,72,0.00,CLR,,0.00,WeatherDisplay:10.37,2013-08-20 04:16:00,
2013-08-19 23:21:00,70.7,61.2,30.02,North,1,0.0,0.0,72,0.00,CLR,,0.00,WeatherDisplay:10.37,2013-08-20 04:21:00,
2013-08-19 23:26:00,70.5,61.1,30.02,North,1,0.0,0.0,72,0.00,CLR,,0.00,WeatherDisplay:10.37,2013-08-20 04:26:00,
2013-08-19 23:31:00,70.5,61.1,30.02,North,1,0.0,0.0,72,0.00,CLR,,0.00,WeatherDisplay:10.37,2013-08-20 04:31:00,
2013-08-19 23:36:00,70.2,60.7,30.02,North,1,0.0,0.0,72,0.00,CLR,,0.00,WeatherDisplay:10.37,2013-08-20 04:36:00,
2013-08-19 23:41:00,70.2,60.7,30.02,North,1,0.0,0.0,72,0.00,CLR,,0.00,WeatherDisplay:10.37,2013-08-20 04:41:00,
2013-08-19 23:46:00,70.2,60.7,30.02,North,1,0.0,0.0,72,0.00,CLR,,0.00,WeatherDisplay:10.37,2013-08-20 04:46:00,
2013-08-19 23:51:00,70.2,60.7,30.02,North,1,0.0,0.0,72,0.00,CLR,,0.00,WeatherDisplay:10.37,2013-08-20 04:51:00,
2013-08-19 23:56:00,70.2,60.7,30.02,North,1,0.0,0.0,72,0.00,CLR,,0.00,WeatherDisplay:10.37,2013-08-20 04:56:00,